This is the latest recevied weather packets stored in our database for station/object YO8SDE-8. If no packets are shown the sender has not sent any weather packets the latest 10 day(s).
| Time | Temp. | Humidity | Pressure | Rain* | Wind** | Luminosity | Snow |
|---|---|---|---|---|---|---|---|
| 1777659065 | 10° C | 59% | 1012.8 hPa | 0 mm | - | - | - |
| 1777658765 | 10° C | 60% | 1012.8 hPa | 0 mm | - | - | - |
| 1777658465 | 11.11° C | 58% | 1012.8 hPa | 0 mm | - | - | - |
| 1777658165 | 11.11° C | 54% | 1012.7 hPa | 0 mm | - | - | - |
| 1777657865 | 11.67° C | 49% | 1012.5 hPa | 0 mm | - | - | - |
| 1777657565 | 11.67° C | 48% | 1012.4 hPa | 0 mm | - | - | - |
| 1777657265 | 11.67° C | 47% | 1012.3 hPa | 0 mm | - | - | - |
| 1777656965 | 11.67° C | 48% | 1012.2 hPa | 0 mm | - | - | - |
| 1777656665 | 11.67° C | 47% | 1012.2 hPa | 0 mm | - | - | - |
| 1777656365 | 11.67° C | 46% | 1012.2 hPa | 0 mm | - | - | - |
| 1777656065 | 11.67° C | 45% | 1012.1 hPa | 0 mm | - | - | - |
| 1777655765 | 11.67° C | 45% | 1012.2 hPa | 0 mm | - | - | - |
| 1777655465 | 12.22° C | 44% | 1012.1 hPa | 0 mm | - | - | - |
| 1777655165 | 12.22° C | 44% | 1012 hPa | 0 mm | - | - | - |
| 1777654865 | 12.22° C | 43% | 1012.1 hPa | 0 mm | - | - | - |
| 1777654565 | 12.22° C | 43% | 1011.9 hPa | 0 mm | - | - | - |
| 1777654265 | 12.22° C | 42% | 1011.9 hPa | 0 mm | - | - | - |
| 1777653965 | 12.22° C | 42% | 1011.9 hPa | 0 mm | - | - | - |
| 1777653665 | 12.22° C | 41% | 1011.8 hPa | 0 mm | - | - | - |
| 1777653365 | 12.78° C | 40% | 1011.8 hPa | 0 mm | - | - | - |
| 1777653065 | 12.78° C | 40% | 1011.7 hPa | 0 mm | - | - | - |
| 1777652765 | 12.78° C | 40% | 1011.7 hPa | 0 mm | - | - | - |
| 1777652465 | 12.78° C | 39% | 1011.6 hPa | 0 mm | - | - | - |
| 1777652165 | 12.78° C | 39% | 1011.7 hPa | 0 mm | - | - | - |
| 1777651865 | 12.78° C | 39% | 1011.8 hPa | 0 mm | - | - | - |
* Rain latest hour (hover to see other rain measurements)
** Current wind speed in m/s (hover to see current wind gust speed)